• In Hungary
  • List of Countries
  • For 7 days
  • Water Temperature
  • Satellite Maps
  • Weather Map
  • News
  • Weather Widgets
  • user-avatar
    Login

    Hourly Weather Mystkow

    Today, 19 September, Wednesday

    Time Temperature Precipitation Wind Pressure Humidity
    00:00 +14°C° 0 mm 2 mps 723 mmHg 79%
    01:00 +14°C° 0 mm 2 mps 723 mmHg 79%
    02:00 +14°C° 0 mm 2 mps 723 mmHg 79%
    03:00 +13°C° 0 mm 2 mps 723 mmHg 80%
    04:00 +13°C° 0 mm 2 mps 723 mmHg 80%
    05:00 +14°C° 0 mm 2 mps 723 mmHg 77%
    06:00 +15°C° 0 mm 2 mps 723 mmHg 74%
    07:00 +16°C° 0 mm 2 mps 723 mmHg 71%
    08:00 +18°C° 0 mm 2 mps 724 mmHg 62%
    09:00 +20°C° 0 mm 2 mps 724 mmHg 54%
    10:00 +24°C° 0 mm 2 mps 724 mmHg 45%
    11:00 +25°C° 0 mm 2 mps 724 mmHg 42%
    12:00 +26°C° 0 mm 2 mps 724 mmHg 40%
    13:00 +26°C° 0 mm 2 mps 724 mmHg 37%
    14:00 +26°C° 0 mm 2 mps 724 mmHg 41%
    15:00 +26°C° 0 mm 1 mps 724 mmHg 44%
    16:00 +25°C° 0 mm 1 mps 724 mmHg 48%
    17:00 +23°C° 0 mm 1 mps 724 mmHg 54%
    18:00 +21°C° 0 mm 1 mps 723 mmHg 60%
    19:00 +18°C° 0 mm 1 mps 723 mmHg 66%
    20:00 +18°C° 0 mm 1 mps 723 mmHg 68%
    21:00 +16°C° 0 mm 1 mps 724 mmHg 70%
    22:00 +15°C° 0 mm 1 mps 724 mmHg 73%
    23:00 +15°C° 0 mm 1 mps 724 mmHg 74%

    Tomorrow, 20 September, Thursday

    Time Temperature Precipitation Wind Pressure Humidity
    00:00 +15°C° 0 mm 1 mps 724 mmHg 75%
    01:00 +14°C° 0 mm 1 mps 724 mmHg 76%
    02:00 +14°C° 0 mm 1 mps 723 mmHg 76%
    03:00 +14°C° 0 mm 1 mps 723 mmHg 76%
    04:00 +14°C° 0 mm 1 mps 723 mmHg 77%
    05:00 +15°C° 0 mm 1 mps 723 mmHg 74%
    06:00 +16°C° 0 mm 1 mps 724 mmHg 72%
    07:00 +18°C° 0 mm 1 mps 724 mmHg 70%
    08:00 +20°C° 0 mm 1 mps 724 mmHg 62%
    09:00 +23°C° 0 mm 1 mps 724 mmHg 54%
    10:00 +25°C° 0 mm 1 mps 725 mmHg 47%
    11:00 +26°C° 0 mm 1 mps 724 mmHg 45%
    12:00 +26°C° 0 mm 1 mps 724 mmHg 43%
    13:00 +27°C° 0 mm 1 mps 724 mmHg 41%
    14:00 +26°C° 0 mm 1 mps 724 mmHg 45%
    15:00 +26°C° 0 mm 1 mps 724 mmHg 48%
    16:00 +25°C° 0 mm 1 mps 723 mmHg 51%
    17:00 +23°C° 0 mm 1 mps 723 mmHg 57%
    18:00 +21°C° 0 mm 1 mps 723 mmHg 62%
    19:00 +19°C° 0 mm 1 mps 723 mmHg 67%
    20:00 +18°C° 0 mm 1 mps 723 mmHg 70%
    21:00 +18°C° 0 mm 1 mps 723 mmHg 72%
    22:00 +16°C° 0 mm 1 mps 723 mmHg 75%
    23:00 +16°C° 0 mm 1 mps 722 mmHg 76%

    Day after tomorrow, 21 September, Friday

    Time Temperature Precipitation Wind Pressure Humidity
    00:00 +15°C° 0 mm 1 mps 722 mmHg 77%
    01:00 +15°C° 0 mm 1 mps 722 mmHg 78%
    02:00 +15°C° 0 mm 1 mps 722 mmHg 78%
    03:00 +15°C° 0 mm 1 mps 722 mmHg 79%
    04:00 +14°C° 0 mm 1 mps 722 mmHg 79%
    05:00 +15°C° 0 mm 1 mps 722 mmHg 76%
    06:00 +16°C° 0 mm 1 mps 722 mmHg 74%
    07:00 +18°C° 0 mm 1 mps 722 mmHg 71%
    08:00 +19°C° 0 mm 2 mps 722 mmHg 63%
    09:00 +23°C° 0 mm 2 mps 722 mmHg 54%
    10:00 +25°C° 0 mm 3 mps 722 mmHg 45%
    11:00 +26°C° 0 mm 3 mps 722 mmHg 43%
    12:00 +26°C° 0 mm 4 mps 722 mmHg 41%
    13:00 +27°C° 0 mm 4 mps 721 mmHg 38%
    14:00 +27°C° 0 mm 4 mps 721 mmHg 41%
    15:00 +26°C° 0 mm 3 mps 720 mmHg 45%
    16:00 +26°C° 0 mm 3 mps 720 mmHg 48%
    17:00 +24°C° 0 mm 3 mps 720 mmHg 53%
    18:00 +20°C° 0 mm 3 mps 720 mmHg 58%
    19:00 +18°C° 0 mm 3 mps 720 mmHg 64%
    20:00 +18°C° 0 mm 3 mps 719 mmHg 64%
    21:00 +17°C° 0 mm 3 mps 719 mmHg 64%
    22:00 +17°C° 0 mm 3 mps 719 mmHg 64%
    23:00 +17°C° 0 mm 3 mps 719 mmHg 63%

    22 September, Saturday

    Time Temperature Precipitation Wind Pressure Humidity
    00:00 +16°C° 0 mm 3 mps 719 mmHg 61%
    01:00 +16°C° 0 mm 3 mps 719 mmHg 60%
    02:00 +16°C° 0 mm 2 mps 719 mmHg 60%
    03:00 +16°C° 0 mm 2 mps 719 mmHg 59%
    04:00 +15°C° 0 mm 2 mps 719 mmHg 59%
    05:00 +14°C° 0 mm 3 mps 720 mmHg 64%
    06:00 +14°C° 0 mm 3 mps 721 mmHg 70%
    07:00 +14°C° 0 mm 4 mps 721 mmHg 75%
    08:00 +13°C° 0.2 mm 3 mps 722 mmHg 77%
    09:00 +12°C° 0.2 mm 3 mps 722 mmHg 79%
    10:00 +11°C° 0.2 mm 3 mps 723 mmHg 81%
    11:00 +11°C° 0.6 mm 3 mps 723 mmHg 81%
    12:00 +10°C° 0.6 mm 3 mps 723 mmHg 81%
    13:00 +9°C° 0.6 mm 3 mps 723 mmHg 81%
    14:00 +9°C° 1.7 mm 3 mps 723 mmHg 84%
    15:00 +8°C° 1.7 mm 2 mps 723 mmHg 88%
    16:00 +7°C° 1.7 mm 2 mps 723 mmHg 92%
    17:00 +7°C° 0.4 mm 2 mps 723 mmHg 92%
    18:00 +6°C° 0.4 mm 2 mps 723 mmHg 92%
    19:00 +7°C° 0.4 mm 1 mps 723 mmHg 91%
    20:00 +7°C° 0 mm 1 mps 723 mmHg 91%
    21:00 +5°C° 0 mm 2 mps 723 mmHg 90%
    22:00 +5°C° 0 mm 2 mps 724 mmHg 90%
    23:00 +5°C° 0 mm 2 mps 724 mmHg 89%

    23 September, Sunday

    Time Temperature Precipitation Wind Pressure Humidity
    00:00 +5°C° 0 mm 2 mps 724 mmHg 89%
    01:00 +5°C° 0 mm 2 mps 724 mmHg 89%
    02:00 +5°C° 0 mm 2 mps 724 mmHg 89%
    03:00 +5°C° 0 mm 2 mps 724 mmHg 90%
    04:00 +5°C° 0 mm 2 mps 724 mmHg 90%
    05:00 +6°C° 0 mm 2 mps 724 mmHg 88%
    06:00 +7°C° 0 mm 2 mps 724 mmHg 86%
    07:00 +8°C° 0 mm 2 mps 724 mmHg 83%
    08:00 +10°C° 0 mm 2 mps 724 mmHg 72%
    09:00 +13°C° 0 mm 2 mps 725 mmHg 61%
    10:00 +15°C° 0 mm 2 mps 725 mmHg 49%
    11:00 +16°C° 0 mm 2 mps 724 mmHg 46%
    12:00 +17°C° 0 mm 2 mps 724 mmHg 43%
    13:00 +17°C° 0 mm 2 mps 723 mmHg 40%
    14:00 +17°C° 0 mm 2 mps 723 mmHg 43%
    15:00 +17°C° 0 mm 2 mps 722 mmHg 45%
    16:00 +16°C° 0 mm 2 mps 721 mmHg 48%
    17:00 +15°C° 0 mm 2 mps 721 mmHg 53%
    18:00 +13°C° 0 mm 2 mps 720 mmHg 59%
    19:00 +10°C° 0 mm 3 mps 720 mmHg 64%
    20:00 +11°C° 0 mm 4 mps 719 mmHg 62%
    21:00 +11°C° 0 mm 4 mps 718 mmHg 59%
    22:00 +10°C° 0 mm 5 mps 717 mmHg 57%
    23:00 +12°C° 0 mm 5 mps 716 mmHg 54%

    24 September, Monday

    Time Temperature Precipitation Wind Pressure Humidity
    00:00 +11°C° 0 mm 6 mps 715 mmHg 52%
    01:00 +13°C° 0 mm 6 mps 714 mmHg 49%
    02:00 +12°C° 0 mm 7 mps 713 mmHg 51%
    03:00 +12°C° 0 mm 7 mps 712 mmHg 53%
    04:00 +12°C° 0 mm 7 mps 711 mmHg 55%
    05:00 +11°C° 1.3 mm 6 mps 711 mmHg 64%
    06:00 +12°C° 1.3 mm 5 mps 710 mmHg 73%
    07:00 +11°C° 1.3 mm 4 mps 710 mmHg 81%
    08:00 +11°C° 0.3 mm 4 mps 710 mmHg 81%
    09:00 +11°C° 0.3 mm 4 mps 710 mmHg 81%
    10:00 +10°C° 0.3 mm 5 mps 710 mmHg 80%
    11:00 +10°C° 0.4 mm 5 mps 710 mmHg 81%
    12:00 +10°C° 0.4 mm 6 mps 710 mmHg 81%
    13:00 +10°C° 0.4 mm 6 mps 710 mmHg 82%
    14:00 +10°C° 0.2 mm 7 mps 711 mmHg 79%
    15:00 +10°C° 0.2 mm 8 mps 711 mmHg 76%
    16:00 +10°C° 0.2 mm 9 mps 712 mmHg 73%
    17:00 +8°C° 0 mm 9 mps 712 mmHg 72%
    18:00 +8°C° 0 mm 9 mps 713 mmHg 71%
    19:00 +7°C° 0 mm 9 mps 714 mmHg 71%
    20:00 +7°C° 0.1 mm 9 mps 714 mmHg 72%
    21:00 +7°C° 0.1 mm 9 mps 715 mmHg 73%
    22:00 +7°C° 0.1 mm 9 mps 715 mmHg 74%
    23:00 +6°C° 0.2 mm 9 mps 716 mmHg 75%
    Show more